FW8327 Weather Reports


Display with metric or nautical units.
time (UTC)temp
F
wind
direction
speed
MPH
gust
MPH
rain 1hr
in
rain 24hr
in
rain mn
in
humidity
%
barometer
mb
20260507195551 58 197 0.0 0.0 0.00 0.00 0.00 50 1011.9
20260507195048 59 255 1.0 2.0 0.00 0.00 0.00 51 1012.1
20260507194544 58 201 0.0 0.0 0.00 0.00 0.00 50 1012.2
20260507194040 59 219 0.0 0.0 0.00 0.00 0.00 51 1012.3
20260507193538 58 251 0.0 2.0 0.00 0.00 0.00 49 1012.6
20260507193035 58 267 1.0 2.0 0.00 0.00 0.00 51 1012.2
20260507192531 59 146 0.0 0.0 0.00 0.00 0.00 49 1012.3
20260507192028 57 241 0.0 0.0 0.00 0.00 0.00 50 1012.5
20260507191523 57 280 0.0 0.0 0.00 0.00 0.00 49 1012.5
20260507191020 57 279 1.0 1.0 0.00 0.00 0.00 51 1012.6
20260507190518 57 283 4.0 7.0 0.00 0.00 0.00 46 1012.6
20260507190016 57 273 2.0 2.0 0.00 0.00 0.00 50 1012.8
20260507185514 58 276 1.0 2.0 0.00 0.00 0.00 49 1012.7
20260507185010 57 251 0.0 0.0 0.00 0.00 0.00 51 1012.5
20260507184509 57 282 0.0 0.0 0.00 0.00 0.00 52 1012.6
20260507184007 57 261 0.0 0.0 0.00 0.00 0.00 49 1012.8
20260507183502 58 233 0.0 0.0 0.00 0.00 0.00 51 1012.7
20260507182959 56 169 0.0 0.0 0.00 0.00 0.00 50 1012.9
20260507182455 56 212 0.0 0.0 0.00 0.00 0.00 47 1012.8
20260507181951 57 247 2.0 2.0 0.00 0.00 0.00 53 1012.8
20260507181448 56 258 0.0 1.0 0.00 0.00 0.00 51 1012.9
20260507180945 56 211 0.0 0.0 0.00 0.00 0.00 50 1012.9
20260507180441 56 252 2.0 2.0 0.00 0.00 0.00 56 1012.8
20260507175937 56 255 1.0 2.0 0.00 0.00 0.00 53 1013.4
20260507175434 56 261 2.0 3.0 0.00 0.00 0.00 50 1013.2
20260507174932 56 286 0.0 1.0 0.00 0.00 0.00 53 1013.1
20260507174429 56 259 2.0 3.0 0.00 0.00 0.00 54 1013.2
20260507173926 56 265 1.0 2.0 0.00 0.00 0.00 50 1013.5
20260507173423 55 270 0.0 0.0 0.00 0.00 0.00 50 1013.2
20260507172920 55 277 2.0 2.0 0.00 0.00 0.00 52 1013.6
20260507172417 55 256 2.0 3.0 0.00 0.00 0.00 50 1013.5
20260507171913 55 259 2.0 3.0 0.00 0.00 0.00 55 1013.7
20260507171409 54 285 1.0 1.0 0.00 0.00 0.00 54 1013.7
20260507170907 55 258 2.0 2.0 0.00 0.00 0.00 58 1014.0
20260507170403 55 285 2.0 3.0 0.00 0.00 0.00 59 1014.1
20260507165859 53 277 0.0 0.0 0.00 0.00 0.00 56 1014.2
20260507165355 53 271 2.0 3.0 0.00 0.00 0.00 53 1014.1
20260507164851 54 309 4.0 6.0 0.00 0.00 0.00 56 1014.0
20260507164348 54 280 3.0 7.0 0.00 0.00 0.00 58 1014.4
20260507163846 53 259 2.0 2.0 0.00 0.00 0.00 57 1014.5
20260507163343 54 279 2.0 3.0 0.00 0.00 0.00 54 1014.4
20260507162839 53 236 0.0 0.0 0.00 0.00 0.00 55 1014.3
20260507162335 53 298 2.0 3.0 0.00 0.00 0.00 54 1014.5
20260507161832 53 286 3.0 3.0 0.00 0.00 0.00 54 1014.6
20260507161329 53 269 3.0 4.0 0.00 0.00 0.00 57 1014.7
20260507160825 53 286 2.0 3.0 0.00 0.00 0.00 54 1014.6
20260507160321 53 270 2.0 2.0 0.00 0.00 0.00 58 1014.4
20260507155818 53 280 2.0 3.0 0.00 0.00 0.00 56 1014.5
20260507155314 53 299 2.0 3.0 0.00 0.00 0.00 54 1014.6
20260507154810 52 281 1.0 1.0 0.00 0.00 0.00 57 1014.5
20260507154308 52 266 2.0 2.0 0.00 0.00 0.00 57 1014.6
20260507153804 52 272 5.0 8.0 0.00 0.00 0.00 56 1014.6
20260507153301 52 300 2.0 3.0 0.00 0.00 0.00 53 1014.6
20260507152757 52 280 2.0 2.0 0.00 0.00 0.00 59 1014.5
20260507152254 51 278 1.0 3.0 0.00 0.00 0.00 62 1014.3
20260507151749 51 255 0.0 0.0 0.00 0.00 0.00 60 1014.3
20260507151246 51 261 0.0 0.0 0.00 0.00 0.00 57 1014.2
20260507150743 51 234 1.0 2.0 0.00 0.00 0.00 58 1014.4
20260507150240 50 266 2.0 3.0 0.00 0.00 0.00 57 1014.3
20260507145736 50 256 4.0 8.0 0.00 0.00 0.00 60 1014.2
20260507145232 50 273 4.0 6.0 0.00 0.00 0.00 62 1014.5
20260507144730 50 259 3.0 3.0 0.00 0.00 0.00 60 1014.3
20260507144227 50 305 2.0 2.0 0.00 0.00 0.00 61 1014.7
20260507143723 49 283 3.0 7.0 0.00 0.00 0.00 60 1014.5
20260507143221 50 281 2.0 2.0 0.00 0.00 0.00 62 1014.4
20260507142717 49 265 1.0 2.0 0.00 0.00 0.00 63 1014.4
20260507142213 49 275 1.0 2.0 0.00 0.00 0.00 62 1014.2
20260507141709 49 274 2.0 2.0 0.00 0.00 0.00 63 1014.3
20260507141207 49 251 2.0 3.0 0.00 0.00 0.00 60 1014.4
20260507140703 48 245 2.0 2.0 0.00 0.00 0.00 61 1014.5
20260507140201 48 274 2.0 2.0 0.00 0.00 0.00 60 1014.5
20260507135657 48 255 0.0 1.0 0.00 0.00 0.00 61 1014.5
20260507135155 48 261 2.0 2.0 0.00 0.00 0.00 61 1014.4
20260507134651 48 253 2.0 2.0 0.00 0.00 0.00 65 1014.4
20260507134147 48 269 0.0 0.0 0.00 0.00 0.00 64 1014.4
20260507133643 47 263 1.0 2.0 0.00 0.00 0.00 64 1014.4
20260507133141 47 269 2.0 3.0 0.00 0.00 0.00 63 1014.5
20260507132638 47 254 1.0 2.0 0.00 0.00 0.00 62 1014.6
20260507132134 47 280 0.0 0.0 0.00 0.00 0.00 69 1014.4
20260507131631 46 234 0.0 1.0 0.00 0.00 0.00 67 1014.4
20260507131128 46 267 1.0 2.0 0.00 0.00 0.00 69 1014.5
20260507130625 46 264 1.0 2.0 0.00 0.00 0.00 70 1014.5
20260507130123 46 251 0.0 0.0 0.00 0.00 0.00 70 1014.4
20260507125621 46 267 0.0 0.0 0.00 0.00 0.00 71 1014.4
20260507125119 45 241 0.0 0.0 0.00 0.00 0.00 73 1014.3
20260507124614 45 265 0.0 0.0 0.00 0.00 0.00 73 1014.2
20260507124113 44 271 0.0 0.0 0.00 0.00 0.00 72 1014.2
20260507123611 44 253 0.0 0.0 0.00 0.00 0.00 74 1014.1
20260507123107 44 221 0.0 0.0 0.00 0.00 0.00 76 1014.2
20260507122602 43 268 0.0 0.0 0.00 0.00 0.00 76 1014.2
20260507122058 43 216 0.0 0.0 0.00 0.00 0.00 78 1013.9
20260507121554 43 221 0.0 0.0 0.00 0.00 0.00 79 1014.1
20260507121051 42 215 0.0 0.0 0.00 0.00 0.00 79 1014.0
20260507120547 42 190 0.0 0.0 0.00 0.00 0.00 80 1014.0
20260507120044 42 205 0.0 0.0 0.00 0.00 0.00 80 1014.1
20260507115540 42 203 0.0 0.0 0.00 0.00 0.00 81 1014.0
20260507115036 41 196 0.0 0.0 0.00 0.00 0.00 80 1014.1
20260507114532 41 187 0.0 0.0 0.00 0.00 0.00 81 1014.0
20260507114029 41 183 0.0 0.0 0.00 0.00 0.00 81 1014.3
20260507113526 41 173 0.0 0.0 0.00 0.00 0.00 80 1014.3
20260507113024 41 179 0.0 0.0 0.00 0.00 0.00 79 1014.0
20260507112521 41 179 0.0 0.0 0.00 0.00 0.00 78 1013.9
20260507112018 41 182 0.0 0.0 0.00 0.00 0.00 77 1013.9
20260507111515 41 194 0.0 0.0 0.00 0.00 0.00 77 1013.8
20260507111011 41 204 0.0 0.0 0.00 0.00 0.00 77 1013.8
20260507110508 41 213 0.0 0.0 0.00 0.00 0.00 80 1013.9
20260507110005 41 248 0.0 0.0 0.00 0.00 0.00 80 1013.9
20260507105501 40 263 0.0 0.0 0.00 0.00 0.00 80 1013.7
20260507104957 40 257 0.0 0.0 0.00 0.00 0.00 80 1013.6
20260507104455 40 222 0.0 0.0 0.00 0.00 0.00 81 1013.8
20260507103950 40 244 0.0 0.0 0.00 0.00 0.00 82 1013.8
20260507103447 40 242 0.0 0.0 0.00 0.00 0.00 82 1013.6
20260507102944 39 243 0.0 0.0 0.00 0.00 0.00 84 1013.5
20260507102440 39 211 0.0 0.0 0.00 0.00 0.00 85 1013.8
20260507101937 39 186 0.0 0.0 0.00 0.00 0.00 84 1013.7
20260507101432 40 186 0.0 0.0 0.00 0.00 0.00 83 1013.7
20260507100929 40 186 0.0 0.0 0.00 0.00 0.00 80 1013.7
20260507100426 40 191 0.0 0.0 0.00 0.00 0.00 81 1013.7
20260507095924 39 186 0.0 0.0 0.00 0.00 0.00 83 1013.8
20260507095421 38 181 0.0 0.0 0.00 0.00 0.00 84 1013.7
20260507094918 38 181 0.0 0.0 0.00 0.00 0.00 83 1013.7
20260507094415 39 181 0.0 0.0 0.00 0.00 0.00 81 1013.6
20260507093912 40 181 0.0 0.0 0.00 0.00 0.00 79 1013.6
20260507093410 40 181 0.0 0.0 0.00 0.00 0.00 78 1013.7
20260507092908 41 183 0.0 0.0 0.00 0.00 0.00 77 1013.6
20260507092403 41 197 0.0 0.0 0.00 0.00 0.00 76 1013.6
20260507091900 41 182 0.0 0.0 0.00 0.00 0.00 76 1013.5
20260507091357 41 185 0.0 0.0 0.00 0.00 0.00 76 1013.2
20260507090852 41 195 0.0 0.0 0.00 0.00 0.00 77 1013.6
20260507090349 41 202 0.0 0.0 0.00 0.00 0.00 78 1013.5
20260507085846 41 209 0.0 0.0 0.00 0.00 0.00 78 1013.8
20260507085342 41 216 0.0 0.0 0.00 0.00 0.00 77 1013.6
20260507084840 41 192 0.0 0.0 0.00 0.00 0.00 77 1013.7
20260507084336 41 193 0.0 0.0 0.00 0.00 0.00 75 1013.5
20260507083834 41 202 0.0 0.0 0.00 0.00 0.00 76 1013.6
20260507083330 41 211 0.0 0.0 0.00 0.00 0.00 76 1013.7
20260507082826 41 188 0.0 0.0 0.00 0.00 0.00 77 1013.6
20260507082322 41 180 0.0 0.0 0.00 0.00 0.00 78 1013.4
20260507081820 41 181 0.0 0.0 0.00 0.00 0.00 78 1013.7
20260507081315 41 180 0.0 0.0 0.00 0.00 0.00 78 1013.7
20260507080812 41 189 0.0 0.0 0.00 0.00 0.00 78 1013.7
20260507080309 41 190 0.0 0.0 0.00 0.00 0.00 79 1013.2
20260507075803 41 196 0.0 0.0 0.00 0.00 0.00 80 1013.5
20260507075300 41 207 0.0 0.0 0.00 0.00 0.00 80 1013.5
20260507074756 41 217 0.0 0.0 0.00 0.00 0.00 80 1013.5
20260507074255 41 240 0.0 0.0 0.00 0.00 0.00 80 1013.8
20260507073751 40 237 0.0 0.0 0.00 0.00 0.00 81 1013.4
20260507073248 40 214 0.0 0.0 0.00 0.00 0.00 83 1013.4
20260507072746 40 257 0.0 0.0 0.00 0.00 0.00 83 1013.5
20260507072243 40 240 0.0 0.0 0.00 0.00 0.00 84 1013.6
20260507071740 40 252 0.0 0.0 0.00 0.00 0.00 84 1013.5
20260507071236 40 268 0.0 0.0 0.00 0.00 0.00 83 1013.6
20260507070733 41 286 0.0 0.0 0.00 0.00 0.00 83 1013.7
20260507070230 41 294 0.0 0.0 0.00 0.00 0.00 82 1013.5
20260507065727 41 283 0.0 0.0 0.00 0.00 0.00 81 1013.6
20260507065224 41 280 0.0 0.0 0.00 0.00 0.00 81 1013.5
20260507064721 41 274 0.0 0.0 0.00 0.00 0.00 81 1013.8
20260507064220 41 280 0.0 0.0 0.00 0.00 0.00 82 1013.6
20260507063717 41 285 0.0 0.0 0.00 0.00 0.00 83 1013.7
20260507063214 41 284 0.0 0.0 0.00 0.00 0.00 83 1013.7
20260507062710 42 286 0.0 0.0 0.00 0.00 0.00 82 1013.6
20260507062208 42 286 0.0 0.0 0.00 0.00 0.00 80 1013.8
20260507061706 42 282 0.0 0.0 0.00 0.00 0.00 79 1013.8
20260507061204 42 271 0.0 0.0 0.00 0.00 0.00 80 1014.0
20260507060702 42 294 0.0 1.0 0.00 0.00 0.00 80 1014.1
20260507060158 42 285 0.0 0.0 0.00 0.00 0.00 80 1014.0
20260507055654 42 284 0.0 0.0 0.00 0.00 0.00 81 1013.8
20260507055149 43 295 0.0 0.0 0.00 0.00 0.00 80 1014.0
20260507054646 43 283 0.0 0.0 0.00 0.00 0.00 80 1013.9
20260507054143 44 286 0.0 0.0 0.00 0.00 0.00 78 1013.7
20260507053641 44 289 1.0 2.0 0.00 0.00 0.00 75 1013.8
20260507053138 45 282 0.0 0.0 0.00 0.00 0.00 74 1014.0
20260507052637 45 280 1.0 1.0 0.00 0.00 0.00 73 1013.9
20260507052132 45 285 1.0 2.0 0.00 0.00 0.00 74 1013.8
20260507051630 45 276 0.0 0.0 0.00 0.00 0.00 74 1014.0
20260507051127 45 280 0.0 0.0 0.00 0.00 0.00 73 1013.9
20260507050624 45 273 0.0 0.0 0.00 0.00 0.00 76 1013.7
20260507050120 45 264 0.0 0.0 0.00 0.00 0.00 76 1013.9
20260507045618 45 262 0.0 0.0 0.00 0.00 0.00 76 1013.8
20260507045114 45 263 0.0 0.0 0.00 0.00 0.00 76 1014.0
20260507044611 45 265 0.0 0.0 0.00 0.00 0.00 75 1013.7
20260507044108 45 268 0.0 0.0 0.00 0.00 0.00 76 1014.1
20260507043603 45 248 0.0 0.0 0.00 0.00 0.00 78 1013.8
20260507043101 46 263 0.0 0.0 0.00 0.00 0.00 76 1013.8
20260507042556 46 260 0.0 0.0 0.00 0.00 0.00 75 1013.6
20260507042052 46 260 0.0 0.0 0.00 0.00 0.00 75 1013.6
20260507041549 46 258 0.0 0.0 0.00 0.00 0.00 76 1013.7
20260507041046 46 251 0.0 0.0 0.00 0.00 0.00 75 1013.7
20260507040543 47 258 0.0 0.0 0.00 0.00 0.00 74 1013.7
20260507040039 47 237 0.0 0.0 0.00 0.00 0.00 74 1013.8
20260507035535 47 248 0.0 0.0 0.00 0.00 0.00 73 1013.6
20260507035032 47 230 0.0 0.0 0.00 0.00 0.00 72 1013.6
20260507034528 47 185 0.0 0.0 0.00 0.00 0.00 71 1013.5
20260507034026 48 216 0.0 0.0 0.00 0.00 0.00 71 1013.6
20260507033524 48 223 0.0 0.0 0.00 0.00 0.00 71 1013.6
20260507033021 48 228 0.0 0.0 0.00 0.00 0.00 70 1013.5
20260507032518 48 189 0.0 0.0 0.00 0.00 0.00 71 1013.5
20260507032014 48 195 0.0 0.0 0.00 0.00 0.00 72 1013.6
20260507031510 48 250 0.0 0.0 0.00 0.00 0.00 72 1013.5
20260507031008 48 240 0.0 0.0 0.00 0.00 0.00 72 1013.7
20260507030505 48 229 0.0 0.0 0.00 0.00 0.00 72 1013.7
20260507030003 48 222 0.0 0.0 0.00 0.00 0.00 72 1013.6
20260507025459 48 210 0.0 0.0 0.00 0.00 0.00 72 1013.6
20260507024957 48 216 0.0 0.0 0.00 0.00 0.00 72 1013.2
20260507024454 48 211 0.0 0.0 0.00 0.00 0.00 72 1013.4
20260507023950 48 241 0.0 0.0 0.00 0.00 0.00 73 1013.4
20260507023447 48 219 0.0 0.0 0.00 0.00 0.00 73 1013.4
20260507022944 48 229 0.0 0.0 0.00 0.00 0.00 74 1013.4
20260507022441 48 244 0.0 0.0 0.00 0.00 0.00 74 1013.4
20260507021936 48 233 0.0 0.0 0.00 0.00 0.00 75 1013.4
20260507021432 49 258 0.0 0.0 0.00 0.00 0.00 75 1013.2
20260507020930 49 260 0.0 0.0 0.00 0.00 0.00 74 1013.0
20260507020426 49 275 0.0 0.0 0.00 0.00 0.00 73 1013.0
20260507015923 49 246 0.0 0.0 0.00 0.00 0.00 74 1013.0
20260507015422 49 239 0.0 0.0 0.00 0.00 0.00 73 1013.1
20260507014918 49 263 0.0 0.0 0.00 0.00 0.00 73 1013.0
20260507014415 50 239 0.0 0.0 0.00 0.00 0.00 73 1013.0
20260507013911 50 220 0.0 0.0 0.00 0.00 0.00 73 1013.1
20260507013408 50 234 0.0 0.0 0.00 0.00 0.00 73 1013.1
20260507012906 50 229 0.0 0.0 0.00 0.00 0.00 74 1013.0
20260507012401 50 245 0.0 0.0 0.00 0.00 0.00 74 1013.1
20260507011853 50 223 0.0 0.0 0.00 0.00 0.00 74 1013.0
20260507011349 50 249 0.0 0.0 0.00 0.00 0.00 73 1012.9
20260507010843 50 235 0.0 0.0 0.00 0.00 0.00 73 1012.8
20260507010339 50 259 0.0 0.0 0.00 0.00 0.00 72 1012.8
20260507005837 51 251 0.0 0.0 0.00 0.00 0.00 73 1012.8
20260507005333 51 264 0.0 0.0 0.00 0.00 0.00 72 1012.7
20260507004830 51 256 0.0 0.0 0.00 0.00 0.00 72 1012.7
20260507004327 51 264 0.0 0.0 0.00 0.00 0.00 70 1012.6
20260507003824 52 255 0.0 0.0 0.00 0.00 0.00 70 1012.3
20260507003321 52 257 0.0 0.0 0.00 0.00 0.00 69 1012.3
20260507002815 53 267 0.0 0.0 0.00 0.00 0.00 69 1012.5
20260507002311 53 260 0.0 0.0 0.00 0.00 0.00 68 1012.3
20260507001803 53 270 0.0 0.0 0.00 0.00 0.00 66 1012.1
20260507001300 53 286 0.0 0.0 0.00 0.00 0.00 66 1012.0
20260507000756 53 267 0.0 0.0 0.00 0.00 0.00 66 1011.9
20260507000252 53 267 1.0 1.0 0.00 0.00 0.00 66 1012.0
20260506235749 53 275 2.0 3.0 0.00 0.00 0.00 64 1012.2
20260506235244 53 278 1.0 2.0 0.00 0.00 0.00 64 1012.2
20260506234742 53 267 1.0 2.0 0.00 0.00 0.00 67 1012.0
20260506234239 53 251 0.0 0.0 0.00 0.00 0.00 68 1012.2
20260506233736 53 288 2.0 2.0 0.00 0.00 0.00 64 1012.2
20260506233233 54 281 1.0 2.0 0.00 0.00 0.00 65 1012.1
20260506232730 54 277 0.0 0.0 0.00 0.00 0.00 66 1012.1
20260506232224 54 267 2.0 3.0 0.00 0.00 0.00 60 1012.2
20260506231722 55 283 1.0 2.0 0.00 0.00 0.00 65 1012.1
20260506231220 54 268 1.0 1.0 0.00 0.00 0.00 61 1012.2
20260506230716 54 266 2.0 2.0 0.00 0.00 0.00 60 1012.1
20260506230213 55 271 1.0 2.0 0.00 0.00 0.00 62 1012.0
20260506225710 55 280 3.0 3.0 0.00 0.00 0.00 61 1012.2
20260506225207 55 294 1.0 2.0 0.00 0.00 0.00 61 1012.1
20260506224703 55 275 2.0 2.0 0.00 0.00 0.00 62 1012.1
20260506224201 55 256 2.0 3.0 0.00 0.00 0.00 61 1012.2
20260506223656 55 273 2.0 3.0 0.00 0.00 0.00 55 1012.0
20260506223152 56 260 2.0 2.0 0.00 0.00 0.00 60 1012.1
20260506222649 56 276 3.0 6.0 0.00 0.00 0.00 59 1011.9
20260506222145 56 281 2.0 2.0 0.00 0.00 0.00 52 1012.1
20260506221644 55 265 0.0 1.0 0.00 0.00 0.00 60 1012.3
20260506221141 55 258 3.0 4.0 0.00 0.00 0.00 56 1012.2
20260506220638 56 271 4.0 4.0 0.00 0.00 0.00 59 1012.2
20260506220132 56 279 4.0 6.0 0.00 0.00 0.00 58 1012.2
20260506215630 56 252 2.0 2.0 0.00 0.00 0.00 59 1012.2
20260506215125 56 282 3.0 4.0 0.00 0.00 0.00 60 1012.2
20260506214622 55 284 2.0 3.0 0.00 0.00 0.00 60 1012.0
20260506214120 56 254 1.0 2.0 0.00 0.00 0.00 61 1012.0
20260506213618 56 279 2.0 2.0 0.00 0.00 0.00 63 1012.0
20260506213115 56 261 3.0 6.0 0.00 0.00 0.00 61 1012.1
20260506212612 56 263 2.0 2.0 0.00 0.00 0.00 64 1012.1
20260506212107 55 266 1.0 1.0 0.00 0.00 0.00 65 1012.1
20260506211603 55 273 2.0 3.0 0.00 0.00 0.00 66 1012.2
20260506211100 55 261 2.0 3.0 0.00 0.00 0.00 60 1011.9
20260506210556 56 281 2.0 3.0 0.00 0.00 0.00 66 1011.8
20260506210053 56 260 2.0 2.0 0.00 0.00 0.00 59 1011.9
20260506205550 56 282 1.0 2.0 0.00 0.00 0.00 63 1011.8
20260506205045 56 245 0.0 1.0 0.00 0.00 0.00 61 1012.0
20260506204543 55 264 0.0 0.0 0.00 0.00 0.00 61 1012.0
20260506204040 55 266 1.0 2.0 0.00 0.00 0.00 56 1012.1
20260506203538 55 258 1.0 2.0 0.00 0.00 0.00 60 1012.2
20260506203034 55 262 5.0 10.0 0.00 0.00 0.00 62 1012.2
20260506202532 55 290 2.0 3.0 0.00 0.00 0.00 58 1012.0
20260506202028 55 282 3.0 4.0 0.00 0.00 0.00 61 1012.0
20260506201526 54 270 1.0 2.0 0.00 0.00 0.00 63 1012.1
20260506201022 54 264 1.0 2.0 0.00 0.00 0.00 63 1012.1
20260506200518 55 266 2.0 3.0 0.00 0.00 0.00 62 1012.0
20260506200015 54 255 0.0 1.0 0.00 0.00 0.00 61 1012.2